FW5778 Weather Reports


Display with metric or nautical units.
time (UTC)temp
F
wind
direction
speed
MPH
gust
MPH
rain 1hr
in
rain 24hr
in
rain mn
in
humidity
%
barometer
mb
20260906205023 82 165 5.0 19.0 0.00 0.00 0.00 29 1009.6
20260906204523 83 143 10.0 19.0 0.00 0.00 0.00 27 1009.6
20260906204022 83 91 11.0 19.0 0.00 0.00 0.00 27 1009.8
20260906203521 83 146 9.0 16.0 0.00 0.00 0.00 28 1010.0
20260906203020 82 157 7.0 19.0 0.00 0.00 0.00 28 1010.0
20260906202520 81 204 6.0 19.0 0.00 0.00 0.00 28 1010.0
20260906202020 81 151 9.0 26.0 0.00 0.00 0.00 28 1010.1
20260906201520 81 161 14.0 26.0 0.00 0.00 0.00 28 1010.2
20260906201018 82 152 10.0 24.0 0.00 0.00 0.00 28 1010.1
20260906200518 82 158 6.0 24.0 0.00 0.00 0.00 28 1010.3
20260906200018 82 145 12.0 24.0 0.00 0.00 0.00 27 1010.3
20260906195517 82 159 12.0 22.0 0.00 0.00 0.00 28 1010.4
20260906195016 82 206 6.0 24.0 0.00 0.00 0.00 28 1010.4
20260906194515 82 155 10.0 24.0 0.00 0.00 0.00 27 1010.5
20260906194016 82 165 9.0 21.0 0.00 0.00 0.00 27 1010.6
20260906193515 82 146 11.0 24.0 0.00 0.00 0.00 28 1010.5
20260906193015 82 149 12.0 24.0 0.00 0.00 0.00 27 1010.7
20260906192514 82 131 11.0 19.0 0.00 0.00 0.00 27 1010.7
20260906192012 82 188 9.0 26.0 0.00 0.00 0.00 28 1010.9
20260906191512 82 146 13.0 26.0 0.00 0.00 0.00 28 1010.9
20260906191012 81 118 7.0 23.0 0.00 0.00 0.00 28 1011.0
20260906190511 81 149 12.0 25.0 0.00 0.00 0.00 27 1011.0
20260906190012 81 139 14.0 25.0 0.00 0.00 0.00 27 1011.2
20260906185508 81 149 11.0 25.0 0.00 0.00 0.00 27 1011.2
20260906185007 80 141 13.0 25.0 0.00 0.00 0.00 28 1011.4
20260906184509 80 104 7.0 25.0 0.00 0.00 0.00 28 1011.4
20260906184005 80 143 9.0 26.0 0.00 0.00 0.00 28 1011.4
20260906183505 81 155 12.0 26.0 0.00 0.00 0.00 27 1011.4
20260906183003 81 136 10.0 25.0 0.00 0.00 0.00 26 1011.4
20260906182502 81 128 14.0 25.0 0.00 0.00 0.00 27 1011.5
20260906182002 81 157 8.0 30.0 0.00 0.00 0.00 27 1011.5
20260906181602 80 146 14.0 30.0 0.00 0.00 0.00 27 1011.7
20260906181100 81 119 12.0 24.0 0.00 0.00 0.00 27 1011.8
20260906180600 81 135 10.0 25.0 0.00 0.00 0.00 27 1011.8
20260906180107 81 141 11.0 24.0 0.00 0.00 0.00 27 1011.9
20260906175557 80 138 9.0 20.0 0.00 0.00 0.00 26 1011.8
20260906175056 80 138 10.0 23.0 0.00 0.00 0.00 27 1011.9
20260906174606 80 144 9.0 21.0 0.00 0.00 0.00 27 1012.0
20260906174056 80 129 11.0 24.0 0.00 0.00 0.00 27 1012.0
20260906173556 80 191 12.0 25.0 0.00 0.00 0.00 27 1012.2
20260906173055 80 134 12.0 25.0 0.00 0.00 0.00 27 1012.4
20260906172555 80 137 7.0 23.0 0.00 0.00 0.00 28 1012.4
20260906172054 79 119 12.0 23.0 0.00 0.00 0.00 27 1012.5
20260906171553 79 125 7.0 19.0 0.00 0.00 0.00 28 1012.5
20260906171055 79 162 10.0 20.0 0.00 0.00 0.00 27 1012.6
20260906170551 79 167 11.0 24.0 0.00 0.00 0.00 27 1012.6
20260906170054 78 204 10.0 24.0 0.00 0.00 0.00 28 1012.6
20260906165551 78 174 11.0 19.0 0.00 0.00 0.00 28 1012.7
20260906165049 78 92 6.0 18.0 0.00 0.00 0.00 30 1012.8
20260906164550 77 164 9.0 18.0 0.00 0.00 0.00 30 1012.8
20260906164045 77 166 8.0 18.0 0.00 0.00 0.00 30 1012.9
20260906163544 77 162 6.0 15.0 0.00 0.00 0.00 31 1013.0
20260906163044 76 148 9.0 17.0 0.00 0.00 0.00 31 1013.0
20260906162545 76 154 9.0 20.0 0.00 0.00 0.00 31 1013.1
20260906162044 76 114 8.0 20.0 0.00 0.00 0.00 32 1013.0
20260906161547 76 176 8.0 17.0 0.00 0.00 0.00 32 1013.2
20260906161042 76 108 8.0 15.0 0.00 0.00 0.00 32 1013.1
20260906160542 76 146 5.0 15.0 0.00 0.00 0.00 32 1013.2
20260906160041 75 138 6.0 14.0 0.00 0.00 0.00 34 1013.3
20260906155539 75 162 8.0 12.0 0.00 0.00 0.00 33 1013.3
20260906155043 75 160 6.0 12.0 0.00 0.00 0.00 34 1013.4
20260906154543 75 140 6.0 12.0 0.00 0.00 0.00 35 1013.4
20260906154037 74 156 7.0 13.0 0.00 0.00 0.00 35 1013.4
20260906153537 74 134 8.0 14.0 0.00 0.00 0.00 37 1013.5
20260906153037 74 101 7.0 14.0 0.00 0.00 0.00 37 1013.5
20260906152536 74 162 7.0 15.0 0.00 0.00 0.00 37 1013.5
20260906152036 73 136 7.0 15.0 0.00 0.00 0.00 37 1013.5
20260906151536 73 161 5.0 11.0 0.00 0.00 0.00 37 1013.6
20260906151037 73 127 4.0 12.0 0.00 0.00 0.00 39 1013.6
20260906150535 72 150 5.0 12.0 0.00 0.00 0.00 40 1013.6
20260906150051 72 144 4.0 12.0 0.00 0.00 0.00 42 1013.6
20260906145537 72 155 7.0 11.0 0.00 0.00 0.00 41 1013.6
20260906145034 72 136 4.0 12.0 0.00 0.00 0.00 41 1013.6
20260906144534 72 146 5.0 12.0 0.00 0.00 0.00 41 1013.5
20260906144033 72 191 6.0 12.0 0.00 0.00 0.00 40 1013.5
20260906143533 72 167 3.0 10.0 0.00 0.00 0.00 40 1013.5
20260906143032 71 162 4.0 10.0 0.00 0.00 0.00 38 1013.5
20260906142534 71 204 2.0 9.0 0.00 0.00 0.00 38 1013.5
20260906142032 70 156 3.0 9.0 0.00 0.00 0.00 38 1013.6
20260906141530 70 194 4.0 8.0 0.00 0.00 0.00 38 1013.4
20260906141031 69 230 2.0 7.0 0.00 0.00 0.00 39 1013.4
20260906140531 69 130 2.0 7.0 0.00 0.00 0.00 39 1013.5
20260906140035 68 208 2.0 7.0 0.00 0.00 0.00 39 1013.4
20260906135528 68 139 2.0 7.0 0.00 0.00 0.00 38 1013.5
20260906135027 68 232 1.0 5.0 0.00 0.00 0.00 38 1013.4
20260906134530 67 129 2.0 5.0 0.00 0.00 0.00 38 1013.4
20260906134027 66 153 1.0 4.0 0.00 0.00 0.00 38 1013.3
20260906133526 66 138 1.0 4.0 0.00 0.00 0.00 38 1013.2
20260906133026 66 207 1.0 5.0 0.00 0.00 0.00 38 1013.2
20260906132525 66 192 2.0 5.0 0.00 0.00 0.00 38 1013.1
20260906132024 66 161 1.0 5.0 0.00 0.00 0.00 37 1013.1
20260906131527 66 221 2.0 7.0 0.00 0.00 0.00 37 1013.0
20260906131022 67 184 2.0 7.0 0.00 0.00 0.00 37 1013.0
20260906130522 67 186 3.0 10.0 0.00 0.00 0.00 37 1012.9
20260906130033 67 224 4.0 8.0 0.00 0.00 0.00 36 1012.9
20260906125521 68 220 3.0 7.0 0.00 0.00 0.00 35 1012.9
20260906125021 68 165 3.0 11.0 0.00 0.00 0.00 35 1012.9
20260906124518 68 168 3.0 10.0 0.00 0.00 0.00 35 1012.8
20260906124019 68 162 4.0 10.0 0.00 0.00 0.00 35 1012.8
20260906123518 68 158 3.0 8.0 0.00 0.00 0.00 34 1012.8
20260906123029 68 221 3.0 11.0 0.00 0.00 0.00 34 1012.8
20260906122522 68 147 4.0 11.0 0.00 0.00 0.00 35 1012.8
20260906122018 68 127 3.0 9.0 0.00 0.00 0.00 35 1012.8
20260906121520 68 149 3.0 8.0 0.00 0.00 0.00 35 1012.7
20260906121017 68 150 3.0 6.0 0.00 0.00 0.00 35 1012.8
20260906120517 68 189 2.0 10.0 0.00 0.00 0.00 34 1012.8
20260906120017 68 169 3.0 10.0 0.00 0.00 0.00 34 1012.8
20260906115516 68 170 3.0 9.0 0.00 0.00 0.00 33 1012.8
20260906115117 68 205 3.0 8.0 0.00 0.00 0.00 33 1012.8
20260906114515 68 219 3.0 9.0 0.00 0.00 0.00 34 1012.9
20260906114014 68 175 3.0 8.0 0.00 0.00 0.00 34 1012.8
20260906113515 68 184 3.0 8.0 0.00 0.00 0.00 34 1012.8
20260906113015 68 153 2.0 6.0 0.00 0.00 0.00 33 1012.8
20260906112516 68 193 2.0 7.0 0.00 0.00 0.00 33 1012.8
20260906112013 68 232 4.0 7.0 0.00 0.00 0.00 33 1012.8
20260906111513 68 217 3.0 6.0 0.00 0.00 0.00 33 1012.9
20260906111012 68 228 3.0 6.0 0.00 0.00 0.00 32 1012.9
20260906110513 68 134 3.0 6.0 0.00 0.00 0.00 32 1012.9
20260906110012 69 195 2.0 6.0 0.00 0.00 0.00 32 1012.9
20260906105511 69 191 3.0 7.0 0.00 0.00 0.00 32 1012.8
20260906105012 69 188 3.0 7.0 0.00 0.00 0.00 32 1012.8
20260906104522 69 159 3.0 7.0 0.00 0.00 0.00 32 1012.8
20260906104010 69 141 2.0 7.0 0.00 0.00 0.00 32 1012.9
20260906103510 69 185 3.0 7.0 0.00 0.00 0.00 32 1013.0
20260906103029 69 229 3.0 7.0 0.00 0.00 0.00 32 1012.9
20260906102509 69 210 3.0 6.0 0.00 0.00 0.00 32 1012.9
20260906102011 70 165 3.0 8.0 0.00 0.00 0.00 32 1012.9
20260906101508 70 152 3.0 8.0 0.00 0.00 0.00 31 1012.9
20260906101011 70 148 3.0 10.0 0.00 0.00 0.00 31 1012.8
20260906100507 70 198 3.0 9.0 0.00 0.00 0.00 31 1012.8
20260906100020 70 163 3.0 9.0 0.00 0.00 0.00 31 1012.8
20260906095506 70 262 4.0 9.0 0.00 0.00 0.00 31 1012.7
20260906095008 69 209 2.0 8.0 0.00 0.00 0.00 31 1012.7
20260906094505 69 141 3.0 8.0 0.00 0.00 0.00 31 1012.7
20260906094004 69 221 3.0 9.0 0.00 0.00 0.00 32 1012.7
20260906093503 70 212 3.0 9.0 0.00 0.00 0.00 31 1012.7
20260906093008 70 214 2.0 6.0 0.00 0.00 0.00 31 1012.6
20260906092501 70 181 3.0 8.0 0.00 0.00 0.00 31 1012.6
20260906092003 70 209 2.0 8.0 0.00 0.00 0.00 31 1012.6
20260906091601 70 188 3.0 8.0 0.00 0.00 0.00 31 1012.5
20260906091100 70 200 5.0 10.0 0.00 0.00 0.00 31 1012.5
20260906090559 71 193 4.0 11.0 0.00 0.00 0.00 31 1012.4
20260906090058 71 155 4.0 12.0 0.00 0.00 0.00 31 1012.5
20260906085556 71 148 4.0 12.0 0.00 0.00 0.00 30 1012.5
20260906085055 71 158 6.0 12.0 0.00 0.00 0.00 30 1012.5
20260906084557 71 150 4.0 12.0 0.00 0.00 0.00 30 1012.4
20260906084055 72 146 7.0 12.0 0.00 0.00 0.00 29 1012.4
20260906083558 72 158 6.0 14.0 0.00 0.00 0.00 29 1012.4
20260906083055 72 174 7.0 14.0 0.00 0.00 0.00 29 1012.4
20260906082553 72 122 8.0 13.0 0.00 0.00 0.00 29 1012.4
20260906082053 72 141 8.0 13.0 0.00 0.00 0.00 30 1012.4
20260906081554 72 129 7.0 14.0 0.00 0.00 0.00 29 1012.3
20260906081052 71 141 7.0 14.0 0.00 0.00 0.00 29 1012.4
20260906080552 71 150 5.0 11.0 0.00 0.00 0.00 29 1012.4
20260906080055 71 148 4.0 10.0 0.00 0.00 0.00 27 1012.4
20260906075553 72 129 4.0 12.0 0.00 0.00 0.00 27 1012.5
20260906075048 72 131 5.0 12.0 0.00 0.00 0.00 26 1012.4
20260906074551 72 118 5.0 11.0 0.00 0.00 0.00 25 1012.4
20260906074046 72 133 5.0 11.0 0.00 0.00 0.00 25 1012.3
20260906073547 72 118 5.0 13.0 0.00 0.00 0.00 25 1012.3
20260906073048 72 141 6.0 13.0 0.00 0.00 0.00 25 1012.2
20260906072544 72 136 5.0 12.0 0.00 0.00 0.00 27 1012.3
20260906072045 73 134 4.0 13.0 0.00 0.00 0.00 27 1012.2
20260906071543 74 143 5.0 13.0 0.00 0.00 0.00 24 1012.2
20260906071042 74 144 5.0 12.0 0.00 0.00 0.00 23 1012.2
20260906070545 74 150 5.0 13.0 0.00 0.00 0.00 24 1012.2
20260906070042 74 155 4.0 13.0 0.00 0.00 0.00 24 1012.2
20260906065541 74 116 6.0 12.0 0.00 0.00 0.00 24 1012.2
20260906065039 74 123 6.0 12.0 0.00 0.00 0.00 25 1012.1
20260906064538 73 153 6.0 12.0 0.00 0.00 0.00 26 1012.2
20260906064037 73 169 4.0 12.0 0.00 0.00 0.00 27 1012.2
20260906063541 73 164 3.0 9.0 0.00 0.00 0.00 27 1012.2
20260906063039 73 169 3.0 9.0 0.00 0.00 0.00 28 1012.0
20260906062534 73 188 3.0 8.0 0.00 0.00 0.00 28 1012.0
20260906062035 73 136 3.0 7.0 0.00 0.00 0.00 28 1012.0
20260906061535 73 160 3.0 7.0 0.00 0.00 0.00 28 1012.0
20260906061035 73 212 3.0 7.0 0.00 0.00 0.00 28 1011.9
20260906060533 73 158 3.0 6.0 0.00 0.00 0.00 28 1011.8
20260906060034 73 146 2.0 7.0 0.00 0.00 0.00 28 1011.8
20260906055532 73 168 2.0 8.0 0.00 0.00 0.00 27 1011.8
20260906055032 74 169 2.0 8.0 0.00 0.00 0.00 27 1011.9
20260906054549 74 214 3.0 7.0 0.00 0.00 0.00 26 1011.8
20260906054031 74 137 3.0 12.0 0.00 0.00 0.00 26 1011.7
20260906053531 74 174 4.0 12.0 0.00 0.00 0.00 26 1011.6
20260906053031 74 159 3.0 10.0 0.00 0.00 0.00 26 1011.5
20260906052531 74 135 5.0 10.0 0.00 0.00 0.00 25 1011.7
20260906052031 74 126 4.0 8.0 0.00 0.00 0.00 25 1011.5
20260906051535 74 134 2.0 8.0 0.00 0.00 0.00 24 1011.5
20260906051030 75 136 4.0 8.0 0.00 0.00 0.00 24 1011.5
20260906050529 75 124 3.0 7.0 0.00 0.00 0.00 23 1011.5
20260906050037 76 130 4.0 10.0 0.00 0.00 0.00 22 1011.6
20260906045530 76 153 4.0 10.0 0.00 0.00 0.00 22 1011.6
20260906045028 76 124 5.0 9.0 0.00 0.00 0.00 21 1011.5
20260906044530 76 148 4.0 9.0 0.00 0.00 0.00 20 1011.6
20260906044029 76 140 3.0 9.0 0.00 0.00 0.00 20 1011.5
20260906043528 76 112 3.0 9.0 0.00 0.00 0.00 20 1011.6
20260906043028 76 148 2.0 11.0 0.00 0.00 0.00 19 1011.5
20260906042527 76 110 3.0 11.0 0.00 0.00 0.00 18 1011.5
20260906042027 77 143 3.0 7.0 0.00 0.00 0.00 18 1011.5
20260906041528 77 149 3.0 10.0 0.00 0.00 0.00 17 1011.4
20260906041027 77 210 5.0 13.0 0.00 0.00 0.00 17 1011.3
20260906040528 77 141 5.0 13.0 0.00 0.00 0.00 17 1011.3
20260906040036 77 191 5.0 10.0 0.00 0.00 0.00 17 1011.2
20260906035526 77 153 4.0 10.0 0.00 0.00 0.00 17 1011.2
20260906035026 77 138 3.0 9.0 0.00 0.00 0.00 17 1011.2
20260906034530 78 208 3.0 13.0 0.00 0.00 0.00 17 1011.1
20260906034027 78 156 5.0 13.0 0.00 0.00 0.00 17 1011.1
20260906033526 77 169 5.0 9.0 0.00 0.00 0.00 17 1011.0
20260906033025 77 159 3.0 8.0 0.00 0.00 0.00 18 1010.9
20260906032525 77 224 2.0 7.0 0.00 0.00 0.00 18 1010.9
20260906032027 77 223 2.0 7.0 0.00 0.00 0.00 18 1010.8
20260906031555 78 172 2.0 7.0 0.00 0.00 0.00 18 1010.7
20260906031127 78 212 2.0 8.0 0.00 0.00 0.00 18 1010.7
20260906030525 78 188 3.0 7.0 0.00 0.00 0.00 17 1010.6
20260906030024 79 186 4.0 9.0 0.00 0.00 0.00 17 1010.5
20260906025524 79 214 4.0 9.0 0.00 0.00 0.00 17 1010.5
20260906025028 79 245 4.0 11.0 0.00 0.00 0.00 17 1010.3
20260906024548 80 220 2.0 14.0 0.00 0.00 0.00 17 1010.2
20260906024024 80 155 5.0 14.0 0.00 0.00 0.00 16 1010.1
20260906023527 80 201 4.0 13.0 0.00 0.00 0.00 17 1010.0
20260906023024 80 200 6.0 13.0 0.00 0.00 0.00 16 1010.0
20260906022524 81 226 6.0 13.0 0.00 0.00 0.00 16 1009.8
20260906022022 81 251 5.0 13.0 0.00 0.00 0.00 17 1009.8
20260906021523 81 232 6.0 13.0 0.00 0.00 0.00 17 1009.8
20260906021022 81 142 5.0 13.0 0.00 0.00 0.00 17 1009.8
20260906020525 81 226 7.0 14.0 0.00 0.00 0.00 16 1009.7
20260906020022 81 236 7.0 14.0 0.00 0.00 0.00 17 1009.7
20260906015522 82 189 6.0 15.0 0.00 0.00 0.00 16 1009.7
20260906015022 82 200 6.0 15.0 0.00 0.00 0.00 16 1009.6
20260906014521 82 238 5.0 14.0 0.00 0.00 0.00 16 1009.6
20260906014022 83 186 5.0 20.0 0.00 0.00 0.00 15 1009.7
20260906013521 83 221 6.0 20.0 0.00 0.00 0.00 15 1009.8
20260906013021 84 136 6.0 14.0 0.00 0.00 0.00 15 1009.7
20260906012520 84 137 5.0 15.0 0.00 0.00 0.00 15 1009.8
20260906012021 85 165 6.0 15.0 0.00 0.00 0.00 14 1009.8
20260906011521 85 140 4.0 15.0 0.00 0.00 0.00 14 1009.8
20260906011021 85 122 6.0 15.0 0.00 0.00 0.00 14 1009.8
20260906010521 85 184 7.0 14.0 0.00 0.00 0.00 14 1009.8
20260906010039 85 116 4.0 15.0 0.00 0.00 0.00 15 1009.8
20260906005520 86 224 5.0 15.0 0.00 0.00 0.00 14 1009.7
20260906005019 86 248 6.0 0.0 0.00 0.00 0.00 15 1009.8
20260906004519 86 207 7.0 15.0 0.00 0.00 0.00 15 1009.8
20260906004019 86 154 6.0 15.0 0.00 0.00 0.00 14 1009.8
20260906003519 86 240 4.0 12.0 0.00 0.00 0.00 15 1009.9
20260906003019 87 200 3.0 12.0 0.00 0.00 0.00 15 1009.8
20260906002518 87 204 7.0 14.0 0.00 0.00 0.00 15 1009.9
20260906002021 87 169 6.0 14.0 0.00 0.00 0.00 14 1009.8
20260906001524 87 123 7.0 17.0 0.00 0.00 0.00 14 1009.8
20260906001019 87 228 4.0 13.0 0.00 0.00 0.00 14 1009.9
20260906000518 87 138 4.0 14.0 0.00 0.00 0.00 14 1009.9
20260906000021 87 210 6.0 17.0 0.00 0.00 0.00 14 1010.0
20260905235518 87 148 9.0 17.0 0.00 0.00 0.00 14 1010.0
20260905235018 87 136 5.0 14.0 0.00 0.00 0.00 14 1009.9
20260905234518 87 216 6.0 15.0 0.00 0.00 0.00 14 1010.1
20260905234017 87 209 5.0 12.0 0.00 0.00 0.00 14 1010.2
20260905233517 87 198 5.0 12.0 0.00 0.00 0.00 15 1010.1
20260905233016 87 149 5.0 20.0 0.00 0.00 0.00 15 1010.1
20260905232515 87 141 9.0 20.0 0.00 0.00 0.00 14 1010.1
20260905232015 87 212 6.0 17.0 0.00 0.00 0.00 13 1010.1
20260905231515 86 213 9.0 19.0 0.00 0.00 0.00 13 1010.3
20260905231014 87 227 8.0 19.0 0.00 0.00 0.00 13 1010.2
20260905230514 87 242 8.0 20.0 0.00 0.00 0.00 13 1010.4
20260905230029 87 163 8.0 20.0 0.00 0.00 0.00 13 1010.4
20260905225516 87 133 6.0 18.0 0.00 0.00 0.00 13 1010.4
20260905225013 86 156 9.0 18.0 0.00 0.00 0.00 13 1010.4
20260905224519 86 229 6.0 19.0 0.00 0.00 0.00 13 1010.6
20260905224013 86 159 8.0 19.0 0.00 0.00 0.00 13 1010.6
20260905223513 87 173 7.0 16.0 0.00 0.00 0.00 13 1010.7
20260905223016 87 182 10.0 16.0 0.00 0.00 0.00 12 1010.7
20260905222514 86 173 6.0 17.0 0.00 0.00 0.00 13 1010.7
20260905222012 86 256 6.0 18.0 0.00 0.00 0.00 13 1010.8
20260905221512 86 198 7.0 20.0 0.00 0.00 0.00 13 1010.8
20260905221012 87 172 8.0 19.0 0.00 0.00 0.00 12 1010.8
20260905220512 87 134 9.0 19.0 0.00 0.00 0.00 12 1010.8
20260905220011 86 144 7.0 18.0 0.00 0.00 0.00 13 1011.0
20260905215511 86 226 10.0 17.0 0.00 0.00 0.00 12 1011.0
20260905215009 86 148 7.0 17.0 0.00 0.00 0.00 15 1011.1
20260905214509 85 140 7.0 16.0 0.00 0.00 0.00 16 1011.1
20260905214009 85 177 6.0 16.0 0.00 0.00 0.00 16 1011.2
20260905213510 85 132 5.0 24.0 0.00 0.00 0.00 17 1011.2
20260905213009 85 124 11.0 24.0 0.00 0.00 0.00 16 1011.1
20260905212509 85 117 6.0 18.0 0.00 0.00 0.00 16 1011.3
20260905212008 86 155 5.0 13.0 0.00 0.00 0.00 17 1011.4
20260905211520 86 165 5.0 14.0 0.00 0.00 0.00 17 1011.4
20260905211006 85 165 5.0 17.0 0.00 0.00 0.00 17 1011.5
20260905210507 84 162 7.0 17.0 0.00 0.00 0.00 17 1011.5
20260905210005 84 121 8.0 17.0 0.00 0.00 0.00 18 1011.7